Flag for U.S.A. Weather past 2 weeks in Hollywood, California, U.S.A.

Now
93 °F

Sunny.


Feels Like: 91 °F
Forecast: 70 / 87 °F
Wind: 8 mph from South

Location: Burbank-Glendale-Pasadena Airport

Current Time: Aug 29, 2015 at 7:05:08 PM

Latest Report: Aug 29, 2015 at 5:53 PM


Visibility: 10 mi

Pressure: 29.78 "Hg

Humidity: 29%

Dew point: 56 °F

Location of HollywoodLocation

Historic Weather in Hollywood — Graph

°F

Hollywood temperature yesterday

Maximum temperature yesterday: 101 °F (at 1:53 PM)
Minimum temperature yesterday: 75 °F (at 5:53 AM)
Average temperature yesterday: 87 °F

Past Weeks' High & Low Weather Summary

 TemperatureHumidityPressure
High102 °F (Aug 15, 1:53 PM)88% (Aug 19, 4:56 AM)29.95 "Hg (Aug 19, 4:56 AM)
Low66 °F (Aug 20, 2:53 AM)11% (Aug 16, 2:53 PM)29.75 "Hg (Aug 16, 6:53 PM)
Average80 °F54%29.86 "Hg
* Reported Aug 14 5:53 PM — Aug 29 5:53 PM, Hollywood, Weather by CustomWeather, © 2015

Note: Actual official high and low records may vary slightly from our data, if they occured in-between our weather recording intervals... More about our weather records

Advertising

Hollywood weather history for previous 24 hours

 ConditionsComfort  
Time TempWeatherWind HumidityBarometerVisibility
5:53 PM
Sat, Aug 29
93 °FSunny.8 mph29%29.78 "Hg10 mi
4:53 PM94 °FSunny.7 mph28%29.79 "Hg10 mi
3:53 PM96 °FSunny.6 mph23%29.80 "Hg10 mi
2:53 PM97 °FSunny.10 mph25%29.81 "Hg10 mi
1:53 PM98 °FSunny.12 mph28%29.82 "Hg10 mi
12:53 PM95 °FSunny.10 mph30%29.84 "Hg10 mi
11:53 AM94 °FSunny.3 mph31%29.86 "Hg10 mi
10:53 AM90 °FSunny.7 mph35%29.87 "Hg10 mi
9:53 AM85 °FSunny.No wind40%29.87 "Hg10 mi
8:53 AM82 °FSunny.No wind46%29.87 "Hg10 mi
7:53 AM77 °FSunny.No wind58%29.86 "Hg10 mi
6:53 AM74 °FClear.No wind52%29.84 "Hg10 mi
5:53 AM74 °FClear.No wind52%29.83 "Hg10 mi
4:53 AM75 °FClear.No wind52%29.82 "Hg10 mi
3:53 AM76 °FClear.No wind58%29.83 "Hg10 mi
2:53 AM77 °FClear.No wind56%29.82 "Hg10 mi
1:53 AM79 °FClear.3 mph54%29.83 "Hg10 mi
12:53 AM79 °FClear.No wind54%29.83 "Hg10 mi
11:53 PM
Fri, Aug 28
79 °FClear.5 mph56%29.82 "Hg10 mi
10:53 PM80 °FClear.7 mph58%29.82 "Hg10 mi
9:53 PM82 °FClear.7 mph53%29.82 "Hg10 mi
8:53 PM84 °FClear.5 mph46%29.80 "Hg10 mi
7:53 PM88 °FSunny.6 mph34%29.78 "Hg10 mi
Weather by CustomWeather, © 2015

See weather overviewHow to use our weather pages